Location: Akho
(42.3047°N, 44.1844°E)
Time: 23:14:04
(UTC+00:00)

CZ-4C R/B - Pass Details

Date: 07 June 2020
Orbit: 408 x 493 km, 97.7° (Epoch: 07 July)

Event Time Altitude Azimuth Distance (km) Brightness Sun altitude
Rises 00:34:01 0° 173° (S) 2,557 6.4 -8.6°
Reaches altitude 10° 00:36:05 10° 177° (S) 1,683 5.4 -8.3°
Maximum altitude 00:39:41 63° 258° (WSW) 557 3.1 -7.8°
Drops below altitude 10° 00:43:18 10° 341° (NNW) 1,690 6.1 -7.3°
Sets 00:45:24 0° 345° (NNW) 2,569 7.1 -7.0°
